Location: Unspecified
(40.7945°N, 111.1337°W)
Time: 04:36:00
(UTC-06:00)

Cosmos 2058 - Pass Details

Date: 30 March 2019
Orbit: 563 x 584 km, 82.5° (Epoch: 23 April)

Event Time Altitude Azimuth Distance (km) Brightness Sun altitude
Rises 22:18:53 0° 3° (N) 2,806 6.8 -27.7°
Reaches altitude 10° 22:21:21 10° 16° (NNE) 1,899 5.7 -28.0°
Enters shadow 22:21:44 12° 19° (NNE) 1,767 5.5 -28.1°
